Zurück zum Katalog

STARLINK-6053

AktivKommunikationVLEO
NORAD 56466·PAYLOAD·🇺🇸 United States

Gestartet May 10, 2023 von Vandenberg Space Force Base

Loading…

Nächste Überflüge (nächste 24 Stunden)

TLE

AktuellSource: CelesTrak SupGP

Epoche: Sep 15, 2026, 02:39 UTC

1 56466C 23064U   26258.11090278  .00007770  00000+0  65127-3 0  2585
2 56466  70.0032  26.7233 0003112 269.4710  60.4043 14.98320682    11

Verfolge STARLINK-6053 in Echtzeit mit AllMySat

Download on the App Store